Destin, Florida, United States (32540)
Lat: 30.39N, Lon: 86.5W
Wx Zone: FLZ006
Local Info
Past Weather Observations for Saturday, November 22, 2014

NOTE: This archive is for the closest National Weather Service station to Destin. Information may differ from the station used for current weather conditions.

Click here for Long-term Archive

Time Weather Temperature Dewpoint Humidity Pressure Winds Precip Visibility
23:53
Overcast
Light Rain
64°F / 18°C 63°F / 17°C 94% 29.98 in
(1015 mb)
E 10.4 mph
(E 17 kph)
0.04 in
(1.02 mm)
10SM
22:53
Overcast
Heavy Rain
63°F / 17°C 61°F / 16°C 94% 30.04 in
(1017 mb)
E 6.9 mph
(E 11 kph)
0.05 in
(1.27 mm)
5SM
22:48
Overcast
Heavy Rain
63°F / 17°C 61°F / 16°C 94% 30.04 in
(1017 mb)
ENE 8.1 mph
(ENE 13 kph)
0.04 in
(1.02 mm)
6SM
22:05
Overcast
Rain
63°F / 17°C 61°F / 16°C 94% 30.06 in
(1018 mb)
ENE 5.8 mph
(ENE 9 kph)
0.01 in
(0.25 mm)
7SM
21:53
Overcast
Light Rain
63°F / 17°C 61°F / 16°C 94% 30.06 in
(1018 mb)
ENE 5.8 mph
(ENE 9 kph)
0.12 in
(3.05 mm)
9SM
21:24
Overcast
Rain
63°F / 17°C 61°F / 16°C 94% 30.06 in
(1018 mb)
Variable 4.6 mph
(Variable 7 kph)
0.10 in
(2.54 mm)
6SM
21:09
Overcast
Rain
63°F / 17°C 61°F / 16°C 94% 30.06 in
(1018 mb)
ENE 5.8 mph
(ENE 9 kph)
0.07 in
(1.78 mm)
5SM
20:53
Overcast
Heavy Rain
63°F / 17°C 61°F / 16°C 94% 30.06 in
(1018 mb)
ENE 6.9 mph
(ENE 11 kph)
0.24 in
(6.10 mm)
2 1/2SM
20:30
Overcast
Heavy Rain
63°F / 17°C 61°F / 16°C 94% 30.06 in
(1018 mb)
NE 5.8 mph
(NE 9 kph)
0.08 in
(2.03 mm)
4SM
20:18
Overcast
Rain
63°F / 17°C 61°F / 16°C 94% 30.06 in
(1018 mb)
ENE 5.8 mph
(ENE 9 kph)
0.03 in
(0.76 mm)
7SM
19:53
Overcast
Light Rain
63°F / 17°C 61°F / 16°C 94% 30.06 in
(1018 mb)
NE 9.2 mph
(NE 15 kph)
0.08 in
(2.03 mm)
8SM
19:50
Overcast
Light Rain
63°F / 17°C 61°F / 16°C 94% 30.06 in
(1018 mb)
ENE 8.1 mph
(ENE 13 kph)
0.08 in
(2.03 mm)
8SM
19:27
Overcast
Rain
63°F / 17°C 61°F / 16°C 94% 30.09 in
(1019 mb)
ENE 8.1 mph
(ENE 13 kph)
0.07 in
(1.78 mm)
3SM
19:21
Overcast
Heavy Rain
63°F / 17°C 59°F / 15°C 88% 30.09 in
(1019 mb)
ENE 8.1 mph
(ENE 13 kph)
0.05 in
(1.27 mm)
2 1/2SM
19:17
Overcast
Heavy Rain
63°F / 17°C 61°F / 16°C 94% 30.09 in
(1019 mb)
ENE 8.1 mph
(ENE 13 kph)
0.03 in
(0.76 mm)
4SM
19:00
Overcast
Light Rain
61°F / 16°C 59°F / 15°C 94% 30.09 in
(1019 mb)
ENE 8.1 mph
(ENE 13 kph)
0.00 in
(0.00 mm)
4SM
18:53
Overcast
Light Rain
61°F / 16°C 59°F / 15°C 94% 30.09 in
(1019 mb)
ENE 8.1 mph
(ENE 13 kph)
0.01 in
(0.25 mm)
3SM
18:50
Overcast
Light Rain
61°F / 16°C 59°F / 15°C 94% 30.09 in
(1019 mb)
ENE 8.1 mph
(ENE 13 kph)
0.01 in
(0.25 mm)
3SM
18:18
Overcast
61°F / 16°C 59°F / 15°C 94% 30.09 in
(1019 mb)
ENE 9.2 mph
(ENE 15 kph)
- 9SM
18:09
Overcast
61°F / 16°C 59°F / 15°C 94% 30.09 in
(1019 mb)
ENE 10.4 mph
(ENE 17 kph)
- 9SM
17:53
Overcast
61°F / 16°C 59°F / 15°C 94% 30.09 in
(1019 mb)
ENE 6.9 mph
(ENE 11 kph)
- 10SM
17:09
Overcast
61°F / 16°C 57°F / 14°C 88% 30.12 in
(1020 mb)
ENE 6.9 mph
(ENE 11 kph)
- 10SM
16:53
Overcast
61°F / 16°C 57°F / 14°C 88% 30.12 in
(1020 mb)
ENE 8.1 mph
(ENE 13 kph)
0.00 in
(0.00 mm)
10SM
16:35
Overcast
61°F / 16°C 59°F / 15°C 94% 30.12 in
(1020 mb)
ENE 6.9 mph
(ENE 11 kph)
0.00 in
(0.00 mm)
10SM
16:23
Overcast
61°F / 16°C 59°F / 15°C 94% 30.12 in
(1020 mb)
E 6.9 mph
(E 11 kph)
0.00 in
(0.00 mm)
10SM
15:53
Overcast
Light Rain
61°F / 16°C 59°F / 15°C 94% 30.12 in
(1020 mb)
E 8.1 mph
(E 13 kph)
0.00 in
(0.00 mm)
7SM
15:30
Overcast
61°F / 16°C 59°F / 15°C 94% 30.12 in
(1020 mb)
ENE 9.2 mph
(ENE 15 kph)
0.00 in
(0.00 mm)
7SM
15:14
Overcast
Light Rain
61°F / 16°C 59°F / 15°C 94% 30.12 in
(1020 mb)
ENE 9.2 mph
(ENE 15 kph)
0.00 in
(0.00 mm)
3SM
14:53
Overcast
Light Rain
61°F / 16°C 59°F / 15°C 94% 30.15 in
(1021 mb)
ENE 9.2 mph
(ENE 15 kph)
0.01 in
(0.25 mm)
3SM
13:53
Overcast
Light Rain
63°F / 17°C 59°F / 15°C 88% 30.15 in
(1021 mb)
E 10.4 mph
(E 17 kph)
0.01 in
(0.25 mm)
4SM
13:21
Overcast
Light Rain
61°F / 16°C 59°F / 15°C 94% 30.18 in
(1022 mb)
ENE 4.6 mph
(ENE 7 kph)
0.01 in
(0.25 mm)
3SM
12:53
Overcast
63°F / 17°C 59°F / 15°C 88% 30.18 in
(1022 mb)
E 9.2 mph
(E 15 kph)
0.01 in
(0.25 mm)
9SM
12:49
Overcast
Light Rain
63°F / 17°C 59°F / 15°C 88% 30.18 in
(1022 mb)
E 6.9 mph
(E 11 kph)
0.01 in
(0.25 mm)
7SM
11:53
Overcast
Light Rain
64°F / 18°C 57°F / 14°C 78% 30.21 in
(1023 mb)
E 6.9 mph
(E 11 kph)
0.00 in
(0.00 mm)
8SM
11:21
Overcast
66°F / 19°C 55°F / 13°C 68% 30.24 in
(1024 mb)
ESE 16.1 mph
(ESE 26 kph)
- 10SM
10:53
Overcast
66°F / 19°C 52°F / 11°C 60% 30.24 in
(1024 mb)
E 9.2 mph
(E 15 kph)
- 10SM
09:53
Clear
63°F / 17°C 52°F / 11°C 68% 30.27 in
(1025 mb)
E 11.5 mph
(E 19 kph)
- 10SM
08:53
Mostly Cloudy
61°F / 16°C 48°F / 9°C 63% 30.3 in
(1026 mb)
ENE 11.5 mph
(ENE 19 kph)
- 10SM
07:53
Clear
57°F / 14°C 46°F / 8°C 67% 30.27 in
(1025 mb)
ENE 12.7 mph
(ENE 20 kph)
- 10SM
06:53
Clear
54°F / 12°C 45°F / 7°C 72% 30.27 in
(1025 mb)
ENE 8.1 mph
(ENE 13 kph)
- 10SM
05:53
Clear
54°F / 12°C 43°F / 6°C 67% 30.3 in
(1026 mb)
Variable 5.8 mph
(Variable 9 kph)
- 10SM
04:53
Partly Cloudy
54°F / 12°C 45°F / 7°C 72% 30.3 in
(1026 mb)
ENE 5.8 mph
(ENE 9 kph)
- 10SM
03:53
Clear
54°F / 12°C 45°F / 7°C 72% 30.27 in
(1025 mb)
E 4.6 mph
(E 7 kph)
- 10SM
02:53
Clear
54°F / 12°C 43°F / 6°C 67% 30.3 in
(1026 mb)
E 5.8 mph
(E 9 kph)
- 10SM
01:53
Clear
54°F / 12°C 43°F / 6°C 67% 30.3 in
(1026 mb)
E 5.8 mph
(E 9 kph)
- 10SM
00:53
Clear
55°F / 13°C 43°F / 6°C 63% 30.3 in
(1026 mb)
E 5.8 mph
(E 9 kph)
- 10SM
Time Weather Temperature Dewpoint Humidity Pressure Winds Precip Visibility


Weather for websites

WeatherForYou.com, LLC is not responsible for any damages or problems caused by this service. Current weather conditions are obtained from the closest station including government and personal stations which may have varying degrees of accuracy. Weather forecasts are derived from the NOAA NDFD. Like all things, this site belongs to Jesus Christ... He just trusts me to maintain it. If you have any questions or comments email webmaster@weatherforyou.com

Copyright © 2014, WeatherForYou.com LLC. All rights reserved.